Clinton, OK

12:18 AM CST on February 19, 2018 (GMT -0600)
Clinton Municipal

Weather History for KCLK - February, 2014

Change the Weather History Date:

Friday, February 14, 2014

  Actual Average (KCSM) Record (KCSM)
Temperature  
Mean Temperature 46 °F -  
Max Temperature 60 °F 52 °F 79 °F (2015)
Min Temperature 32 °F 32 °F 15 °F (2007)
Degree Days  
Heating Degree Days 19    
Moisture  
Dew Point 24 °F    
Average Humidity 46    
Maximum Humidity 87    
Minimum Humidity 16    
Precipitation  
Precipitation 0.00 in - - ()
Sea Level Pressure  
Sea Level Pressure 29.94 in    
Wind  
Wind Speed 11 mph (NNW)    
Max Wind Speed 28 mph    
Max Gust Speed 37 mph    
Visibility 10 miles    
Events      
Averages and records for this station are not official NWS values.
T = Trace of Precipitation, MM = Missing Value Source: NWS Daily Summary

Daily Weather History Graph

Daily Weather History Graph

Search for Another Location

Airport or City:

Trip Planner

Search our weather history database for the weather conditions in past years. The results will help you decide how hot, cold, wet, or windy it might be!

Date:

Astronomy

Feb. 14, 2014 Rise Set
Actual Time 7:23 AM CST 6:16 PM CST
Civil Twilight 6:57 AM CST 6:42 PM CST
Nautical Twilight 6:27 AM CST 7:12 PM CST
Astronomical Twilight 5:57 AM CST 7:42 PM CST
Moon 6:20 PM CST (2/14) 6:52 AM CST (2/14)
Length of Visible Light 11h 45m
Length of Day
10h 53m
Full, 100% of the Moon is Illuminated
Feb 14
Full
Feb 14
Full
Feb 22
Last Quarter
Mar 1
New
Mar 8
First Quarter

Hourly Weather History & Observations

Time (CST) Temp. Windchill Dew Point Humidity Pressure Visibility Wind Dir Wind Speed Gust Speed Precip Events Conditions
12:15 AM 42.8 °F 37.0 °F 32.0 °F 66% 29.78 in 10.0 mi South 10.4 mph - N/A   Scattered Clouds
12:35 AM 46.4 °F 42.4 °F 32.0 °F 57% 29.75 in 10.0 mi South 8.1 mph 12.7 mph N/A   Scattered Clouds
12:55 AM 44.6 °F - 32.0 °F 61% 29.76 in 10.0 mi Calm Calm - N/A   Scattered Clouds
1:15 AM 42.8 °F 38.6 °F 32.0 °F 66% 29.75 in 10.0 mi SSE 6.9 mph - N/A   Clear
1:35 AM 42.8 °F 38.0 °F 32.0 °F 66% 29.74 in 10.0 mi South 8.1 mph - N/A   Clear
1:55 AM 42.8 °F 37.0 °F 32.0 °F 66% 29.74 in 10.0 mi SSW 10.4 mph - N/A   Clear
2:15 AM 42.8 °F 37.5 °F 32.0 °F 66% 29.74 in 10.0 mi South 9.2 mph - N/A   Clear
2:35 AM 44.6 °F 40.7 °F 32.0 °F 61% 29.75 in 10.0 mi WSW 6.9 mph - N/A   Clear
2:55 AM 42.8 °F 38.0 °F 32.0 °F 66% 29.74 in 10.0 mi WSW 8.1 mph - N/A   Clear
3:15 AM 42.8 °F 39.3 °F 32.0 °F 66% 29.73 in 10.0 mi WSW 5.8 mph - N/A   Clear
3:35 AM 41.0 °F 35.8 °F 32.0 °F 70% 29.71 in 10.0 mi South 8.1 mph - N/A   Clear
3:55 AM 42.8 °F 36.6 °F 32.0 °F 66% 29.68 in 10.0 mi South 11.5 mph - N/A   Clear
4:15 AM 41.0 °F 37.1 °F 32.0 °F 70% 29.67 in 10.0 mi SSW 5.8 mph - N/A   Clear
4:35 AM 39.2 °F 37.0 °F 32.0 °F 75% 29.68 in 10.0 mi South 3.5 mph - N/A   Clear
4:55 AM 42.8 °F 41.1 °F 32.0 °F 66% 29.69 in 10.0 mi WNW 3.5 mph - N/A   Clear
5:15 AM 35.6 °F 29.9 °F 32.0 °F 87% 29.71 in 10.0 mi NNW 6.9 mph - N/A   Clear
5:35 AM 41.0 °F 37.1 °F 32.0 °F 70% 29.72 in 10.0 mi NNW 5.8 mph - N/A   Clear
5:55 AM 37.4 °F 31.4 °F 32.0 °F 81% 29.73 in 10.0 mi NNW 8.1 mph - N/A   Clear
6:15 AM 35.6 °F 29.2 °F 30.2 °F 81% 29.76 in 10.0 mi NNW 8.1 mph - N/A   Clear
6:35 AM 33.8 °F 27.7 °F 30.2 °F 87% 29.78 in 10.0 mi NNW 6.9 mph - N/A   Clear
6:55 AM 37.4 °F 27.5 °F 32.0 °F 81% 29.77 in 10.0 mi North 18.4 mph 21.9 mph N/A   Clear
7:15 AM 42.8 °F 34.3 °F 32.0 °F 66% 29.79 in 10.0 mi North 19.6 mph - N/A   Clear
7:35 AM 42.8 °F 34.0 °F 32.0 °F 66% 29.82 in 10.0 mi North 20.7 mph - N/A   Clear
7:55 AM 44.6 °F 36.1 °F 30.2 °F 57% 29.85 in 10.0 mi North 21.9 mph 26.5 mph N/A   Clear
8:15 AM 44.6 °F 38.4 °F 30.2 °F 57% 29.88 in 10.0 mi North 12.7 mph - N/A   Clear
8:35 AM 46.4 °F 40.1 °F 30.2 °F 53% 29.90 in 10.0 mi North 15.0 mph 24.2 mph N/A   Clear
8:55 AM 46.4 °F 39.2 °F 30.2 °F 53% 29.91 in 10.0 mi North 18.4 mph 24.2 mph N/A   Clear
9:15 AM 48.2 °F - 30.2 °F 50% 29.92 in 10.0 mi North 20.7 mph 29.9 mph N/A   Clear
9:35 AM 50.0 °F - 28.4 °F 43% 29.94 in 10.0 mi NNW 21.9 mph 31.1 mph N/A   Clear
9:55 AM 51.8 °F - 26.6 °F 38% 29.97 in 10.0 mi North 26.5 mph 36.8 mph N/A   Clear
10:15 AM 51.8 °F - 26.6 °F 38% 29.98 in 10.0 mi North 21.9 mph 33.4 mph N/A   Clear
10:35 AM 53.6 °F - 24.8 °F 33% 30.00 in 10.0 mi North 27.6 mph 33.4 mph N/A   Clear
10:55 AM 53.6 °F - 24.8 °F 33% 30.02 in 10.0 mi North 18.4 mph - N/A   Clear
11:15 AM 55.4 °F - 24.8 °F 31% 30.02 in 10.0 mi North 23.0 mph 27.6 mph N/A   Clear
11:35 AM 55.4 °F - 24.8 °F 31% 30.03 in 10.0 mi NNW 23.0 mph 27.6 mph N/A   Clear
11:55 AM 57.2 °F - 23.0 °F 27% 30.04 in 10.0 mi NNW 18.4 mph 27.6 mph N/A   Clear
12:15 PM 59.0 °F - 21.2 °F 23% 30.02 in 10.0 mi North 19.6 mph 27.6 mph N/A   Clear
12:35 PM 59.0 °F - 21.2 °F 23% 30.00 in 10.0 mi NNW 21.9 mph 26.5 mph N/A   Clear
12:55 PM 59.0 °F - 19.4 °F 22% 30.01 in 10.0 mi NNW 23.0 mph 29.9 mph N/A   Clear
1:15 PM 60.8 °F - 21.2 °F 22% 30.03 in 10.0 mi NNW 18.4 mph 26.5 mph N/A   Clear
1:35 PM 60.8 °F - 21.2 °F 22% 30.03 in 10.0 mi North 23.0 mph 28.8 mph N/A   Clear
1:55 PM 59.0 °F - 19.4 °F 22% 30.03 in 10.0 mi NNW 18.4 mph 27.6 mph N/A   Clear
2:15 PM 59.0 °F - 17.6 °F 20% 30.02 in 10.0 mi NNW 21.9 mph 34.5 mph N/A   Clear
2:35 PM 59.0 °F - 19.4 °F 22% 30.02 in 10.0 mi North 17.3 mph 27.6 mph N/A   Clear
2:55 PM 59.0 °F - 15.8 °F 19% 30.02 in 10.0 mi NNW 17.3 mph 27.6 mph N/A   Clear
3:15 PM 59.0 °F - 17.6 °F 20% 30.03 in 10.0 mi North 17.3 mph 27.6 mph N/A   Clear
3:35 PM 59.0 °F - 17.6 °F 20% 30.02 in 10.0 mi North 15.0 mph 27.6 mph N/A   Clear
3:55 PM 59.0 °F - 17.6 °F 20% 30.03 in 10.0 mi North 13.8 mph 19.6 mph N/A   Clear
4:15 PM 59.0 °F - 17.6 °F 20% 30.04 in 10.0 mi NNE 13.8 mph - N/A   Clear
4:35 PM 59.0 °F - 14.0 °F 17% 30.05 in 10.0 mi North 11.5 mph 15.0 mph N/A   Clear
4:55 PM 59.0 °F - 12.2 °F 16% 30.05 in 10.0 mi North 13.8 mph 20.7 mph N/A   Clear
5:15 PM 57.2 °F - 12.2 °F 17% 30.06 in 10.0 mi North 15.0 mph - N/A   Clear
5:35 PM 55.4 °F - 14.0 °F 20% 30.06 in 10.0 mi North 11.5 mph - N/A   Clear
5:55 PM 53.6 °F - 14.0 °F 21% 30.06 in 10.0 mi North 9.2 mph - N/A   Clear
6:15 PM 51.8 °F - 15.8 °F 24% 30.05 in 10.0 mi North 8.1 mph - N/A   Clear
6:35 PM 48.2 °F - 17.6 °F 30% 30.07 in 10.0 mi North 5.8 mph - N/A   Scattered Clouds
6:55 PM 46.4 °F 43.5 °F 17.6 °F 32% 30.08 in 10.0 mi North 5.8 mph - N/A   Scattered Clouds
7:15 PM 46.4 °F 45.2 °F 17.6 °F 32% 30.09 in 10.0 mi NNE 3.5 mph - N/A   Clear
7:35 PM 44.6 °F 40.2 °F 19.4 °F 37% 30.09 in 10.0 mi NNE 8.1 mph - N/A   Clear
7:55 PM 42.8 °F 39.3 °F 19.4 °F 39% 30.09 in 10.0 mi North 5.8 mph - N/A   Clear
8:15 PM 44.6 °F 42.2 °F 19.4 °F 37% 30.09 in 10.0 mi NNE 4.6 mph - N/A   Clear
8:35 PM 39.2 °F 35.0 °F 21.2 °F 49% 30.09 in 10.0 mi East 5.8 mph - N/A   Clear
8:55 PM 39.2 °F 37.0 °F 21.2 °F 49% 30.09 in 10.0 mi ENE 3.5 mph - N/A   Clear
9:15 PM 37.4 °F - 21.2 °F 52% 30.10 in 10.0 mi Calm Calm - N/A   Clear
9:35 PM 39.2 °F - 21.2 °F 49% 30.09 in 10.0 mi Calm Calm - N/A   Clear
9:55 PM 39.2 °F - 21.2 °F 49% 30.09 in 10.0 mi Calm Calm - N/A   Clear
10:15 PM 37.4 °F - 21.2 °F 52% 30.09 in 10.0 mi Calm Calm - N/A   Clear
10:35 PM 37.4 °F - 21.2 °F 52% 30.11 in 10.0 mi Calm Calm - N/A   Clear
10:55 PM 35.6 °F - 23.0 °F 60% 30.11 in 10.0 mi Calm Calm - N/A   Clear
11:15 PM 33.8 °F - 21.2 °F 60% 30.12 in 10.0 mi Calm Calm - N/A   Clear
11:35 PM 32.0 °F - 21.2 °F 64% 30.12 in 10.0 mi Calm Calm - N/A   Clear
11:55 PM 32.0 °F - 21.2 °F 64% 30.11 in 10.0 mi Calm Calm - N/A   Clear